Location: Hains Lake
(37.8540°N, 99.8578°W)
Time: 23:37:28
(UTC+00:00)

Vanguard 1 - Pass Details

Date: 04 December 2022
Orbit: 650 x 3831 km, 34.2° (Epoch: 05 February)

Event Time Altitude Azimuth Distance (km) Brightness Sun altitude
Exits shadow 10:56:08 15° 200° (SSW) 3,041 12.4 -31.5°
Drops below altitude 10° 11:00:47 10° 172° (S) 3,996 13.3 -30.6°
Sets 11:07:03 0° 154° (SSE) 5,727 14.4 -29.3°
